Location: Kershaw
(34.5481°N, 80.5823°W)
Time: 03:39:20
(UTC+00:00)

Altair - Pass Details

Date: 12 October 2022
Orbit: 1501 x 1682 km, 47.2° (Epoch: 01 December)

Event Time Altitude Azimuth Distance (km) Brightness Sun altitude
Rises 04:35:32 0° 175° (S) 4,636 - -61.8°
Reaches altitude 10° 04:40:17 10° 154° (SSE) 3,681 - -62.0°
Maximum altitude 04:45:03 15° 122° (ESE) 3,317 - -62.3°
Drops below altitude 10° 04:49:52 10° 91° (E) 3,753 - -62.5°
Sets 04:54:44 0° 70° (ENE) 4,780 - -62.6°
